Flag for U.S.A. Weather past 2 weeks in Lincoln, Nebraska, U.S.A.

Now
25 °F

Clear.


Feels Like: 17 °F
Forecast: 26 / 44 °F
Wind: 7 mph from North

Location: Lincoln Municipal Airport

Current Time: Mar 27, 2015 at 7:49:17 AM

Latest Report: Mar 27, 2015 at 6:54 AM


Visibility: 10 mi

Pressure: 30.35 "Hg

Humidity: 78%

Dew point: 19 °F

Location of LincolnLocation

Historic Weather in Lincoln — Graph

°F

Lincoln temperature yesterday

Maximum temperature yesterday: 51 °F (at 2:54 PM)
Minimum temperature yesterday: 23 °F (at 6:54 AM)
Average temperature yesterday: 36 °F

Past Weeks' High & Low Weather Summary

 TemperatureHumidityPressure
High90 °F (Mar 16, 4:54 PM)100% (Mar 25, 4:54 AM)30.54 "Hg (Mar 25, 4:54 AM)
Low23 °F (Mar 20, 6:54 AM)9% (Mar 16, 3:54 PM)29.75 "Hg (Mar 16, 3:54 PM)
Average48 °F56%30.14 "Hg
* Reported Mar 12 6:54 AM — Mar 27 6:54 AM, Lincoln, Weather by CustomWeather, © 2015

Note: Actual official high and low records may vary slightly from our data, if they occured in-between our weather recording intervals... More about our weather records

Advertising

Lincoln weather history for previous 24 hours

 ConditionsComfort  
Time TempWeatherWind HumidityBarometerVisibility
6:54 AM
Fri, Mar 27
25 °FClear.7 mph78%30.35 "Hg10 mi
5:54 AM26 °FClear.8 mph81%30.32 "Hg10 mi
4:54 AM24 °FClear.10 mph84%30.29 "Hg10 mi
3:54 AM26 °FClear.10 mph84%30.28 "Hg9 mi
2:54 AM29 °FClear.13 mph89%30.26 "Hg8 mi
1:54 AM31 °FClear.8 mph92%30.25 "Hg8 mi
12:54 AM32 °FClear.7 mph92%30.25 "Hg8 mi
11:54 PM
Thu, Mar 26
33 °FClear.8 mph92%30.25 "Hg5 mi
10:54 PM34 °FPassing clouds.12 mph92%30.25 "Hg6 mi
9:59 PM34 °FMostly cloudy.9 mph97%30.21 "Hg5 mi
8:54 PM34 °FLight snow. Fog.8 mph97%30.22 "Hg3 mi
8:02 PM34 °FLight snow. Fog.9 mph97%30.17 "Hg3 mi
7:54 PM34 °FLight snow. Fog.10 mph97%30.20 "Hg3 mi
6:54 PM35 °FLight snow. Fog.13 mph92%30.19 "Hg4 mi
5:54 PM37 °FLight rain. Fog.15 mph89%30.18 "Hg4 mi
5:01 PM42 °FLight rain. Mostly cloudy.10 mph73%30.11 "Hg4 mi
3:54 PM50 °FMostly cloudy.3 mph38%30.11 "Hg10 mi
2:54 PM51 °FPassing clouds.5 mph36%30.13 "Hg10 mi
1:54 PM49 °FPassing clouds.7 mph36%30.17 "Hg10 mi
12:54 PM48 °FSunny.8 mph37%30.21 "Hg10 mi
11:54 AM45 °FSunny.5 mph42%30.24 "Hg10 mi
10:54 AM43 °FSunny.5 mph45%30.27 "Hg10 mi
9:54 AM38 °FSunny.No wind65%30.29 "Hg10 mi
8:54 AM32 °FSunny.5 mph73%30.29 "Hg10 mi
7:54 AM28 °FClear.5 mph78%30.28 "Hg10 mi
Weather by CustomWeather, © 2015

See weather overviewHow to use our weather pages